DW0407 Weather Reports


time (UTC)temp
C
wind
direction
speed
KPH
gust
KPH
rain 1hr
cm
rain 24hr
cm
rain mn
cm
humidity
%
barometer
mb
20260510000013 18 261 0.0 3.2 0.00 0.00 0.00 73 1006.8
20260509234508 18 118 0.0 4.8 0.00 0.00 0.00 72 1006.5
20260509233012 18 119 3.2 9.7 0.00 0.00 0.00 71 1006.6
20260509231519 19 72 3.2 9.7 0.00 0.00 0.00 69 1006.6
20260509230015 19 73 3.2 9.7 0.00 0.00 0.00 69 1006.6
20260509224515 19 31 3.2 9.7 0.00 0.00 0.00 67 1006.6
20260509223012 19 360 4.8 9.7 0.00 0.00 0.00 66 1006.6
20260509221515 19 71 6.4 11.3 0.00 0.00 0.00 66 1006.6
20260509220021 19 59 1.6 16.1 0.00 0.00 0.00 66 1006.6
20260509214515 18 96 6.4 12.9 0.00 0.00 0.00 65 1006.6
20260509211511 18 34 4.8 12.9 0.00 0.00 0.00 66 1006.8
20260509210017 18 46 4.8 9.7 0.00 0.00 0.00 67 1006.9
20260509204518 18 343 4.8 8.0 0.00 0.00 0.00 67 1007.0
20260509203018 18 31 4.8 9.7 0.00 0.00 0.00 66 1006.9
20260509200014 18 19 1.6 4.8 0.00 0.00 0.00 65 1007.0
20260509194520 18 60 4.8 14.5 0.00 0.00 0.00 66 1007.0
20260509193027 18 103 3.2 12.9 0.00 0.00 0.00 64 1007.1
20260509191537 18 85 4.8 11.3 0.00 0.00 0.00 65 1007.1
20260509190011 18 97 8.0 12.9 0.00 0.00 0.00 64 1007.3
20260509184531 18 115 4.8 11.3 0.00 0.00 0.00 67 1007.5
20260509183027 18 150 3.2 14.5 0.00 0.00 0.00 64 1007.6
20260509181524 17 106 6.4 12.9 0.00 0.00 0.00 65 1007.8
20260509180023 17 84 4.8 14.5 0.00 0.00 0.00 67 1008.4
20260509174521 17 104 4.8 17.7 0.00 0.00 0.00 67 1008.7
20260509173019 16 104 9.7 12.9 0.00 0.00 0.00 68 1008.9
20260509171520 16 148 1.6 9.7 0.00 0.00 0.00 72 1009.1
20260509170024 16 108 4.8 12.9 0.00 0.00 0.00 70 1009.2
20260509164525 16 78 3.2 11.3 0.00 0.00 0.00 68 1008.8
20260509163026 16 67 3.2 8.0 0.00 0.00 0.00 68 1008.9
20260509161521 16 322 3.2 6.4 0.00 0.00 0.00 68 1009.0
20260509160022 16 52 0.0 6.4 0.00 0.00 0.00 68 1009.3
20260509154525 16 144 3.2 12.9 0.00 0.00 0.00 70 1009.3
20260509151519 15 130 8.0 12.9 0.00 0.00 0.00 75 1009.6
20260509150022 14 119 4.8 6.4 0.00 0.00 0.00 82 1009.8
20260509144506 13 139 1.6 4.8 0.00 0.00 0.00 86 1009.6
20260509143012 13 55 1.6 4.8 0.00 0.00 0.00 88 1009.1
20260509141516 13 30 0.0 0.0 0.00 0.00 0.00 87 1009.2
20260509140021 13 89 0.0 4.8 0.00 0.00 0.00 87 1009.5
20260509134504 13 128 0.0 6.4 0.00 0.00 0.00 84 1009.4
20260509133006 13 323 1.6 4.8 0.00 0.00 0.00 81 1009.5
20260509131514 13 254 1.6 6.4 0.00 0.00 0.00 74 1009.1
20260509130029 13 185 3.2 14.5 0.00 0.00 0.00 72 1008.9
20260509124520 13 184 3.2 9.7 0.00 0.00 0.00 71 1008.9
20260509123004 13 136 4.8 14.5 0.00 0.00 0.00 72 1009.0
20260509121510 13 176 6.4 16.1 0.00 0.00 0.00 73 1008.9
20260509120013 13 160 3.2 11.3 0.00 0.00 0.00 73 1008.9
20260509114520 13 180 3.2 11.3 0.00 0.00 0.00 74 1008.7
20260509113025 12 178 1.6 8.0 0.00 0.00 0.00 74 1008.7
20260509111508 12 216 3.2 11.3 0.00 0.00 0.00 75 1008.6
20260509110012 12 233 3.2 11.3 0.00 0.00 0.00 76 1008.6
20260509104516 12 221 3.2 11.3 0.00 0.00 0.00 77 1008.4
20260509103021 11 182 0.0 4.8 0.00 0.00 0.00 80 1008.2
20260509101536 11 257 0.0 0.0 0.00 0.00 0.00 83 1008.5
20260509100010 11 352 0.0 3.2 0.00 0.00 0.00 86 1008.6
20260509094514 11 279 0.0 3.2 0.00 0.00 0.00 83 1008.3
20260509093022 11 279 0.0 0.0 0.00 0.00 0.00 82 1008.5
20260509091522 12 279 1.6 8.0 0.00 0.00 0.00 78 1008.5
20260509090036 11 169 0.0 4.8 0.00 0.00 0.00 79 1008.5
20260509084512 11 144 0.0 4.8 0.00 0.00 0.00 80 1008.5
20260509083029 11 217 0.0 0.0 0.00 0.00 0.00 79 1008.7
20260509081521 11 217 0.0 0.0 0.00 0.00 0.00 82 1008.6
20260509074526 11 208 0.0 0.0 0.00 0.00 0.00 80 1008.6
20260509071517 10 240 0.0 0.0 0.00 0.00 0.00 84 1008.7
20260509070020 10 279 0.0 0.0 0.00 0.00 0.00 86 1008.8
20260509063027 11 279 0.0 0.0 0.00 0.00 0.00 86 1009.0
20260509061521 11 279 0.0 4.8 0.00 0.00 0.00 85 1009.1
20260509060017 11 276 0.0 0.0 0.00 0.00 0.00 83 1009.2
20260509054524 10 211 0.0 6.4 0.00 0.00 0.00 84 1009.1
20260509053036 10 184 0.0 0.0 0.00 0.00 0.00 85 1008.9
20260509051527 10 180 0.0 0.0 0.00 0.00 0.00 83 1009.2
20260509050021 10 180 0.0 0.0 0.00 0.00 0.00 82 1009.5
20260509044521 10 145 0.0 0.0 0.00 0.00 0.00 82 1009.5
20260509043024 11 145 0.0 0.0 0.00 0.00 0.00 81 1009.7
20260509041525 11 146 0.0 0.0 0.00 0.00 0.00 82 1009.6
20260509040030 11 146 0.0 0.0 0.00 0.00 0.00 80 1009.7
20260509034520 12 236 0.0 1.6 0.00 0.00 0.00 76 1009.7
20260509033022 12 239 0.0 4.8 0.00 0.00 0.00 76 1009.7
20260509031547 12 126 1.6 4.8 0.00 0.00 0.00 74 1009.6
20260509030047 13 277 0.0 3.2 0.00 0.00 0.00 73 1009.9
20260509024529 13 227 1.6 6.4 0.00 0.00 0.00 72 1010.1
20260509023029 14 256 4.8 6.4 0.00 0.00 0.00 71 1010.2
20260509021534 15 248 0.0 0.0 0.00 0.00 0.00 66 1010.1
20260509020024 15 157 0.0 0.0 0.00 0.00 0.00 66 1009.8
20260509014526 15 157 0.0 6.4 0.00 0.00 0.00 67 1009.9
20260509013025 16 168 0.0 0.0 0.00 0.00 0.00 62 1009.8
20260509011522 16 98 0.0 3.2 0.00 0.00 0.00 55 1009.7
20260509010024 16 117 3.2 6.4 0.00 0.00 0.00 57 1009.7
20260509004529 17 141 1.6 4.8 0.00 0.00 0.00 56 1009.9
20260509003031 17 132 3.2 6.4 0.00 0.00 0.00 56 1009.6
20260509001526 18 240 0.0 6.4 0.00 0.00 0.00 49 1009.5